Probability
0 0 0 0 0 0 0 0 0 0 0 0 0 0 0 0 0 0 0 0 0 0 0 0 0 0 1 2 3 2 1 0 0 0 0 0 0 0 0 0 0 0 0
0 0 0 0 0 0 0 0 0 0 0 0 0 0 0 0 0 0 0 0 0 0 0 0 0 0 0 1 2 2 1 0 0 0 0 0 0 0 0 0 0 0 0
0 0 1 1 1 0 0 0 0 0 0 0 0 0 0 0 0 0 0 0 0 0 0 0 0 0 0 0 1 1 1 0 0 0 0 0 0 0 0 0 0 0 0
0 1 2 2 1 0 0 0 0 0 0 0 0 0 0 0 0 0 0 0 0 0 0 0 0 0 0 0 0 0 0 0 0 0 0 0 0 0 0 0 0 0 0
0 1 2 3 1 0 0 0 0 0 0 0 0 0 0 0 0 0 0 0 0 0 0 0 0 0 0 0 0 0 0 0 0 0 0 0 0 0 0 0 0 0 0
0 1 2 3 2 1 0 0 0 0 0 0 0 0 0 0 0 0 0 0 0 0 0 0 0 0 0 0 0 0 1 1 1 0 0 0 0 0 0 0 0 0 0
0 0 1 3 3 2 1 0 0 0 0 0 0 0 0 0 0 0 0 0 0 0 0 0 0 0 0 0 0 0 1 2 1 0 0 0 0 0 0 0 0 0 0
0 0 1 2 2 2 1 0 0 0 0 0 0 0 0 0 0 0 0 0 0 0 0 0 0 0 0 0 0 1 2 2 1 0 0 0 0 0 0 0 0 0 0
0 0 0 1 1 1 1 0 0 0 0 0 0 0 0 0 0 0 0 0 0 0 0 0 0 0 0 0 0 1 3 3 1 0 0 0 0 0 0 0 0 0 0
0 0 0 0 0 0 0 0 0 0 0 0 0 0 0 0 0 0 0 0 0 0 0 0 0 0 0 0 0 1 2 1 0 0 0 0 0 0 0 0 0 0 0
0 0 0 0 0 0 0 0 0 0 0 0 0 0 0 0 0 0 0 0 0 0 0 0 0 0 0 0 0 0 0 0 0 0 0 0 0 0 0 0 0 0 0
0 0 0 0 0 0 0 0 0 0 0 0 0 0 0 0 0 0 0 0 0 0 0 0 0 0 0 0 0 0 0 0 0 0 0 0 0 0 0 0 0 0 0
0 0 0 0 0 0 0 0 0 0 0 0 0 0 0 0 0 0 0 0 0 0 0 0 0 0 0 0 0 0 0 0 0 0 0 0 0 0 0 0 0 0 0
0 0 0 0 0 0 0 0 0 0 0 0 0 0 0 0 0 0 0 0 0 0 0 0 0 0 0 0 0 1 1 1 0 0 0 0 0 0 0 0 0 0 0
0 0 0 0 0 0 0 0 0 0 0 0 0 0 0 0 0 0 0 0 0 0 0 0 0 0 0 1 1 2 2 2 1 0 0 0 0 0 0 0 0 0 0
0 0 0 0 0 0 0 0 0 0 0 0 0 0 0 0 0 0 0 0 0 0 0 0 0 0 1 2 3 3 3 3 1 0 0 0 0 0 0 0 0 0 0
0 0 0 0 0 0 0 0 0 0 0 0 0 0 0 0 0 0 0 0 0 0 0 0 0 1 2 3 3 3 3 3 2 0 0 0 0 0 0 0 0 0 0
0 0 0 0 0 0 0 0 0 0 0 0 0 0 0 0 0 0 0 0 0 0 0 0 1 2 3 3 3 3 3 2 1 0 0 0 0 0 0 0 0 0 0
0 0 0 0 0 0 0 0 0 0 0 0 0 0 0 0 0 0 0 0 0 0 0 0 1 2 3 3 3 2 1 1 0 0 0 0 0 0 0 0 0 0 0
0 0 0 0 0 0 0 0 0 0 0 0 0 0 0 0 0 0 0 0 0 0 0 0 1 2 2 2 1 1 0 0 0 0 0 0 0 0 0 0 0 0 0
0 0 0 0 0 0 0 0 0 0 0 0 0 0 0 0 0 0 0 0 0 0 0 0 0 1 1 1 0 0 0 0 0 0 0 0 0 0 0 0 0 0 0
0 0 1 1 0 0 0 0 0 0 0 0 0 0 0 0 0 0 0 0 0 0 0 0 0 0 0 0 0 0 0 0 0 0 0 0 0 0 0 0 0 0 0
0 0 1 2 1 1 0 0 0 0 0 0 0 0 0 0 0 0 0 0 0 0 0 0 0 0 0 0 0 0 0 0 0 0 0 0 0 0 0 0 0 0 0
1 0 1 2 3 2 1 0 0 0 0 0 0 0 0 0 0 0 0 0 0 0 0 0 0 0 0 0 0 0 0 0 0 0 0 0 0 0 0 0 0 0 0
2 1 1 2 3 3 2 1 1 0 0 0 0 0 0 0 0 0 0 0 0 0 0 0 0 0 0 0 0 0 0 0 0 0 0 0 0 0 0 0 0 0 0
2 1 1 2 3 3 3 2 2 1 0 0 0 0 0 0 0 0 0 0 0 0 0 0 0 0 0 0 0 0 0 0 0 0 0 0 0 0 0 0 0 0 0
Wind_Speed
7 8 9 9 10 10 10 10 10 10 10 10 10 10 10 10 10 10 10 10 10 10 10 10 10 10 10 10 9 9 9 8 8 8 8 8 8 8 7 7 8 6 9
10 10 10 10 10 10 10 10 10 10 10 10 10 9 10 10 10 10 10 10 10 10 10 10 10 10 10 10 9 9 8 7 6 5 6 7 7 7 7 8 8 6 8
10 11 10 10 10 10 9 9 10 10 9 9 9 9 9 9 9 9 9 10 10 10 9 9 9 9 9 9 9 8 7 6 5 4 3 2 5 8 8 8 8 8 7
11 10 10 10 10 10 9 9 9 9 9 9 9 9 9 9 10 10 10 10 10 9 9 9 8 9 8 8 8 7 6 6 7 6 3 3 5 8 8 7 7 7 7
11 11 9 10 10 10 10 9 9 9 9 9 9 9 9 9 9 9 9 9 10 10 9 9 8 8 8 8 7 6 6 6 6 5 4 5 5 8 9 8 7 7 7
10 11 9 10 10 10 9 9 9 9 8 8 8 9 9 9 9 9 8 9 9 9 9 9 8 8 7 7 6 6 6 7 6 4 5 5 4 9 9 8 7 7 7
10 10 10 10 10 10 9 9 9 9 8 8 8 8 8 8 8 8 8 8 8 8 8 8 8 8 7 7 6 6 6 6 3 5 5 5 6 10 10 9 8 8 7
9 10 10 11 11 10 10 9 9 8 8 8 7 7 7 7 7 7 7 7 7 7 7 7 7 8 7 7 6 6 7 6 6 6 5 5 8 10 10 9 9 8 8
7 8 8 9 9 10 10 9 8 7 7 6 6 5 5 5 6 6 7 7 7 7 7 7 6 6 6 5 5 6 6 6 4 3 6 5 8 10 10 9 9 8 8
5 6 7 7 8 8 7 8 7 6 5 4 4 4 4 4 5 6 6 6 6 6 6 5 5 5 4 4 3 4 5 5 4 5 5 6 10 10 10 10 9 8 8
4 4 5 6 6 6 6 7 6 6 4 4 4 5 4 2 3 4 7 6 5 5 4 4 3 3 2 2 1 2 3 2 4 5 5 8 10 10 10 9 9 9 9
4 4 5 6 5 4 4 4 2 3 3 3 2 2 2 2 3 5 6 5 5 4 3 2 1 1 1 1 0 1 1 3 4 5 5 10 11 11 10 10 9 9 9
4 3 4 5 5 5 3 3 1 1 1 1 2 3 3 2 3 3 2 3 2 3 1 2 1 1 1 1 1 2 3 4 4 4 6 10 10 10 10 10 9 9 9
4 4 3 3 5 5 4 2 2 2 1 2 2 3 3 2 2 2 2 2 1 1 2 1 1 2 3 4 4 4 5 4 4 4 5 10 11 11 11 11 10 10 10
5 4 4 4 5 5 4 1 3 2 2 2 1 1 3 2 2 1 2 2 2 2 2 2 3 4 4 4 5 6 6 5 5 5 4 10 10 10 11 11 11 11 11
5 5 4 4 4 4 4 3 2 2 1 2 2 2 4 2 2 2 3 3 2 2 2 2 4 3 4 4 5 5 5 4 4 5 4 6 11 11 12 12 12 11 11
5 6 5 4 4 4 4 3 3 1 2 2 2 3 3 3 3 3 3 2 2 3 3 3 4 4 4 4 5 5 4 5 4 4 5 4 5 9 12 13 13 12 12
5 6 5 4 5 5 3 3 2 2 3 2 2 3 3 3 4 3 3 2 3 3 3 3 4 4 4 4 4 4 4 4 5 5 4 4 3 4 7 12 12 13 14
5 6 5 4 4 4 3 2 2 3 3 2 3 3 4 4 4 4 2 2 3 3 3 4 4 3 3 3 3 3 3 4 4 5 5 5 4 4 4 7 11 12 13
4 6 6 4 3 4 2 2 2 3 2 3 3 3 4 3 4 3 2 3 4 3 3 3 3 3 2 2 3 4 3 3 3 4 4 4 4 5 4 5 4 7 12
5 5 5 5 3 3 2 1 2 2 2 3 3 4 3 3 3 3 3 4 4 3 3 3 3 2 2 1 2 2 2 3 3 3 3 3 4 4 4 4 4 3 4
5 5 5 5 4 4 2 2 2 2 2 3 3 3 3 3 3 3 3 3 3 3 3 3 3 2 1 1 1 1 1 2 2 2 2 3 3 3 4 5 5 4 4
5 5 4 5 5 5 4 2 2 2 2 2 2 2 2 3 3 3 3 3 2 3 2 2 2 2 1 2 2 2 2 1 0 1 2 3 3 3 3 3 5 5 6
5 4 5 5 5 5 5 3 3 3 2 2 2 2 2 3 3 3 3 2 3 3 3 2 2 2 2 1 2 2 2 2 2 0 1 2 3 3 3 3 4 4 5
5 3 3 4 4 4 4 4 2 2 2 2 2 3 3 2 2 2 2 2 3 3 2 2 3 2 1 1 1 1 2 2 1 2 1 0 1 1 2 2 2 3 3
6 4 4 4 4 4 4 4 3 3 2 3 3 2 2 2 2 2 2 2 2 2 2 2 2 2 1 2 2 2 1 1 1 1 1 1 1 0 1 2 2 2 2
Wind_Direction
93 90 80 76 72 68 65 66 65 64 63 64 64 64 63 61 60 59 59 60 63 62 60 60 62 64 65 64 63 61 60 58 64 72 72 72 70 69 68 65 63 64 70
104 97 84 77 74 73 71 69 66 65 65 64 61 64 65 62 61 61 59 62 63 61 59 60 63 65 65 64 60 58 57 54 52 64 73 73 73 72 69 68 68 66 68
103 102 88 77 74 74 73 73 72 68 65 64 62 62 63 64 65 63 62 64 65 63 61 63 65 65 65 64 60 53 48 42 29 26 42 83 82 76 71 72 73 70 66
97 92 85 81 77 73 73 74 72 70 66 65 64 63 63 65 65 65 64 64 64 63 63 65 70 67 64 62 58 50 40 25 13 19 39 60 70 76 73 71 72 70 67
96 96 91 85 81 79 77 74 72 71 67 65 64 66 69 70 69 65 62 63 64 63 63 62 67 69 66 62 55 45 32 16 13 32 53 66 64 72 71 68 66 66 65
107 104 101 94 88 84 80 76 73 73 68 66 67 69 71 70 69 66 63 64 65 63 63 62 64 68 68 62 51 37 22 18 19 48 59 63 64 68 67 64 61 58 59
109 110 113 106 98 91 84 79 74 73 72 70 70 72 73 72 69 67 66 66 67 66 65 65 66 68 67 61 50 33 24 21 42 60 63 60 64 67 62 60 57 52 49
113 116 119 121 112 101 91 83 78 75 75 76 79 81 79 78 74 70 69 69 70 70 71 70 68 69 66 57 46 32 22 22 46 70 68 61 65 64 61 58 53 51 45
111 121 130 136 127 115 105 98 91 86 86 90 92 96 97 97 91 83 79 75 76 76 74 73 73 73 68 60 45 30 23 26 28 53 69 62 64 64 62 56 51 50 46
115 121 127 134 138 138 130 124 122 118 117 122 130 135 131 126 117 104 96 88 84 82 80 81 81 80 77 68 43 21 10 15 38 53 58 62 65 65 62 56 50 48 46
112 118 117 117 119 127 135 134 152 153 165 178 191 196 185 185 139 112 97 107 99 95 95 97 96 98 102 97 21 4 10 48 62 64 60 64 67 65 61 55 51 50 47
131 123 118 116 114 108 99 124 151 144 160 199 156 153 155 102 93 102 118 128 127 121 127 144 155 175 214 180 187 0 35 59 69 71 66 70 67 62 57 54 52 51 48
109 98 108 117 114 111 100 95 75 81 106 74 61 89 82 84 112 121 143 152 160 163 162 162 201 222 104 84 69 70 65 58 67 69 66 65 63 59 54 52 53 52 49
99 91 85 97 105 95 84 90 83 60 58 64 29 77 86 66 63 87 105 99 101 88 62 65 63 55 50 56 57 54 61 65 73 78 69 65 59 55 50 49 53 54 52
113 104 83 77 81 93 92 75 89 64 36 63 23 65 92 80 70 71 86 76 68 69 71 46 54 53 52 45 50 56 59 63 76 81 74 68 61 54 50 49 53 53 53
117 106 89 83 81 90 101 92 79 89 83 50 21 42 83 85 76 60 73 72 65 60 63 67 67 60 61 57 54 55 52 54 67 85 88 75 66 62 56 53 55 54 52
112 105 97 96 89 75 76 77 87 88 90 66 38 27 70 79 74 63 58 66 68 66 59 55 61 58 67 66 62 59 53 46 50 72 82 79 73 68 63 56 55 53 51
116 111 108 97 93 80 70 62 76 75 69 70 51 25 44 77 81 72 59 56 62 70 67 66 60 60 61 59 55 50 52 46 45 54 71 72 67 69 65 63 59 56 52
121 117 111 92 96 96 89 84 48 69 64 65 61 36 27 49 70 79 61 53 62 57 54 68 65 64 69 71 80 68 62 54 45 51 55 64 65 64 65 64 63 59 53
120 117 118 115 105 108 91 80 65 53 65 70 66 57 31 33 51 74 77 61 65 65 59 70 73 70 70 71 78 76 76 77 58 48 50 52 57 63 62 66 62 56 54
132 126 128 132 130 114 97 85 87 81 66 72 76 67 53 40 40 60 67 68 61 70 71 79 74 66 55 77 73 67 63 67 69 63 50 48 51 51 54 55 58 60 55
138 143 145 143 136 126 118 115 117 107 94 86 71 60 54 54 38 51 69 87 82 78 70 70 74 56 14 41 83 94 83 37 23 65 64 56 50 43 46 49 48 55 58
151 156 153 150 141 135 125 95 84 78 72 90 97 80 54 58 47 37 51 69 89 92 93 89 72 67 19 351 40 68 94 107 353 24 60 67 57 44 39 43 48 49 53
152 159 161 146 136 127 122 115 123 119 121 124 127 121 103 74 64 47 45 62 78 84 90 84 87 68 58 6 1 23 65 118 127 88 3 61 73 60 47 46 45 46 57
146 146 133 120 118 119 121 121 119 111 124 114 107 113 115 95 83 76 52 53 69 82 88 79 72 62 47 43 25 13 18 20 60 121 138 49 47 64 71 62 60 47 58
139 139 133 128 125 133 138 143 136 119 107 101 105 112 117 113 95 94 91 69 73 78 72 74 86 94 68 43 28 24 37 34 17 57 94 127 123 106 88 73 71 63 69